Location: Unspecified
(51.0000°N, 12.0000°E)
Time: 13:02:06
(UTC+02:00)

OTV 5 (USA 277) - Pass Details

Date: 29 April 2019
Orbit: 310 x 325 km, 54.5° (Epoch: 08 May)

Event Time Altitude Azimuth Distance (km) Brightness Sun altitude
Rises 00:09:42 0° 291° (WNW) 2,039 ? -23.4°
Reaches altitude 10° 00:11:41 10° 297° (WNW) 1,209 ? -23.5°
Enters shadow 00:12:03 13° 299° (WNW) 1,063 ? -23.5°
